Location: Newark
(47.5000°N, 4.6167°E)
Time: 02:19:36
(UTC+00:00)

X-37B - Pass Details

Date: 10 December 2021
Orbit: 334 x 337 km, 45.0° (Epoch: 11 January)

Event Time Altitude Azimuth Distance (km) Brightness Sun altitude
Rises 18:13:26 0° 257° (WSW) 2,102 5.8 -23.1°
Reaches altitude 10° 18:15:28 10° 251° (WSW) 1,266 4.2 -23.5°
Enters shadow 18:16:46 23° 241° (WSW) 768 2.7 -23.7°
